Regional Weather Roundup
Issued by NWS

Home | Current Version | Previous Version | Text Only | Print | Product List | Glossary Off
Versions: 1 2 3 4 5 6 7 8 9 10 11 12 13 14 15 16 17 18 19 20 21 22 23 24 25 26 27 28 29 30 31 32 33 34 35 36 37 38 39 40 41 42 43 44 45 46 47 48 49 50

000
ASUS45 KPSR 170100
RWRAZ

PRELIMINARY ARIZONA REGIONAL HOURLY WEATHER ROUNDUP
NATIONAL WEATHER SERVICE PHOENIX AZ
600 PM MST WED APR 16 2014

NOTE: FAIR INDICATES FEW OR NO CLOUDS BELOW 12,000 FEET WITH NO
SIGNIFICANT WEATHER AND/OR OBSTRUCTIONS TO VISIBILITY.

AZZ001>003-036-170200-
NORTHWEST ARIZONA

CITY           SKY/WX    TMP DP  RH WIND       PRES   REMARKS
KINGMAN        SUNNY     81  12   7 W15       29.79S
$$

AZZ004>008-015-016-018-170200-
NORTH CENTRAL ARIZONA

CITY           SKY/WX    TMP DP  RH WIND       PRES   REMARKS
GRAND CANYON   MOSUNNY   63  16  16 NW9G20    29.95R
PRESCOTT       MOSUNNY   72  11   9 SW20      29.86S
FLAGSTAFF      PTSUNNY   64   8  11 W9G17     29.95R
PAYSON         SUNNY     72  12  10 SW16G24   29.89S
PAGE           MOSUNNY   68  27  21 E5        29.85S
$$

AZZ009>014-017-170200-
NORTHEAST ARIZONA

CITY           SKY/WX    TMP DP  RH WIND       PRES   REMARKS
WINSLOW        NOT AVBL
SAINT JOHNS    PTCLDY    69   7   9 NW12      29.86R
WINDOW ROCK    CLOUDY    58  19  22 W10       29.95S
SHOW LOW       CLEAR     64   7  10 W12       29.93S
$$

AZZ023-170200-
GREATER PHOENIX AREA

CITY           SKY/WX    TMP DP  RH WIND       PRES   REMARKS
PHOENIX        MOSUNNY   91  14   6 W10       29.66S
GLENDALE       MOSUNNY   91  16   6 S10G18    29.67F
DEER VALLEY    SUNNY     87  15   7 SW15      29.67S
SCOTTSDALE     SUNNY     87  18   8 SW9       29.70S
MESA-FALCON    MOSUNNY   88  10   5 W9        29.69
MESA-GATEWAY   SUNNY     88  12   6 W7        29.71S
CHANDLER       MOSUNNY   90  12   5 SW8       29.68S
$$

AZZ027-028-170200-
SOUTHWEST MARICOPA COUNTY AND PINAL COUNTY

CITY           SKY/WX    TMP DP  RH WIND       PRES   REMARKS
CASA GRANDE    SUNNY     88  25  10 W12       29.71R
GILA BEND      PTCLDY    91  19   7 W6        29.68S
$$

AZZ503-504-507>509-170200-
SOUTHEAST ARIZONA

CITY           SKY/WX    TMP DP  RH WIND       PRES   REMARKS
TUCSON         SUNNY     85   4   4 W13       29.77S
DAVIS-MONTHAN  SUNNY     84  11   6 W14       29.76S
RYAN FIELD       N/A     88  14   6 W12       29.76S
NOGALES        SUNNY     79   0   4 SW13      29.84S
SIERRA VISTA   PTCLDY    75   0   5 W15G24    29.88R
SAFFORD        MOCLDY    82  -3   4 W22       29.73R
$$

AZZ020-021-025-026-031-170200-
SOUTHWEST ARIZONA

CITY           SKY/WX    TMP DP  RH WIND       PRES   REMARKS
YUMA           NOT AVBL
$$

CAZ031-033-041-043-047-048-061-170200-
SOUTHERN CALIFORNIA

CITY           SKY/WX    TMP DP  RH WIND       PRES   REMARKS
DOWNTOWN L.A.  SUNNY     66  53  63 VRB6      29.79S
L.A. AIRPORT   MOSUNNY   62  52  69 SW10      29.80F
SAN DIEGO      MOSUNNY   63  52  67 SW8       29.84S
BURBANK        SUNNY     68  51  54 S12       29.77S
ONTARIO        SUNNY     73  50  44 SW12      29.78R
RIVERSIDE      SUNNY     73  50  44 W12       29.77S
PALM SPRINGS   SUNNY     92  37  14 NW12      29.64F
IMPERIAL       SUNNY     93  33  12 SE14G20   29.61F
BLYTHE         SUNNY     94  25   8 S9        29.62F
$$

NVZ020-UTZ003-170200-
SOUTHERN NEVADA-UTAH

CITY           SKY/WX    TMP DP  RH WIND       PRES   REMARKS
LAS VEGAS      NOT AVBL
SALT LAKE CITY MOSUNNY   56  11  16 N6        29.99S
$$

NMZ009-TXZ055-170200-
NEW MEXICO-WEST TEXAS

CITY           SKY/WX    TMP DP  RH WIND       PRES   REMARKS
ALBUQUERQUE    CLOUDY    70   8   9 W22       29.83R
EL PASO        PTCLDY    82   1   4 W12G20    29.73S
$$


........................KEY........................
SKY/WX - SKY CONDITION/WEATHER
TMP    - TEMPERATURE IN FAHRENHEIT
DP     - DEW POINT IN FAHRENHEIT
RH     - RELATIVE HUMIDITY IN PERCENT
WIND   - DIRECTION AND SPEED IN MILES PER HOUR (MPH)
VRB    - VARIABLE WIND DIRECTION
PRES   - MEAN SEA LEVEL PRESSURE IN INCHES OF MERCURY
         F - FALLING PRESSURE   R - RISING PRESSURE
         S - STEADY PRESSURE
VSB    - VISIBILITY IN MILES
HX     - HEAT INDEX IN FAHRENHEIT
WCI    - WIND CHILL INDEX IN FAHRENHEIT
TC     - TEMPERATURE IN CELSIUS WHICH IS ALSO KNOWN AS
         TEMPERATURE IN CENTIGRADE
AFB    - AIR FORCE BASE
         LUKE AFB IS LUKE AIR FORCE BASE
         DAVIS-MONTHAN IS DAVIS-MONTHAN AIR FORCE BASE
NAS    - NAVAL AIR STATION
         EL CENTRO NAS IS EL CENTRO NAVAL AIR STATION
N/A    - NOT AVAILABLE



USA.gov is the U.S. government's official web portal to all federal, state and local government web resources and services.